Weather History for Rochester, MN

Change the Weather History Date:

Thursday, July 4, 2013

  Actual Average Record
Temperature  
Mean Temperature 74 °F 72 °F  
Max Temperature 86 °F 82 °F 98 °F (1949)
Min Temperature 61 °F 61 °F 43 °F (1967)
Degree Days  
Heating Degree Days 0 0  
Month to date heating degree days 0 0  
Since 1 June heating degree days 60  
Since 1 July heating degree days 0 0  
Cooling Degree Days 9 7  
Month to date cooling degree days 21 28  
Year to date cooling degree days 177 192  
Since 1 June cooling degree days 147  
Growing Degree Days 24 (Base 50)    
Moisture  
Dew Point 55 °F    
Average Humidity 56    
Maximum Humidity 78    
Minimum Humidity 34    
Precipitation  
Precipitation 0.00 in 0.14 in 1.40 in (1913)
Month to date precipitation 0.00 0.57  
Year to date precipitation 30.76 15.69  
Snow  
Snow 0.00 in 0.00 in 0.00 in (2012)
Month to date snowfall 0.0 0.0  
Since 1 June snowfall 0.0  
Since 1 July snowfall 0.0 0.0  
Snow Depth 0.00 in    
Sea Level Pressure  
Sea Level Pressure 29.98 in    
Wind  
Wind Speed 12 mph (South)    
Max Wind Speed 20 mph    
Max Gust Speed 25 mph    
Visibility 10 miles    
Events      
T = Trace of Precipitation, MM = Missing Value Source: NWS Daily Summary

Daily Weather History Graph

Daily Weather History Graph

Search for Another Location

Airport:

Trip Planner

Search our weather history database for the weather conditions in past years. The results will help you decide how hot, cold, wet, or windy it might be!

Date:

Astronomy

Jul. 04, 2013 Rise Set
Actual Time 5:33 AM CDT 8:55 PM CDT
Civil Twilight 4:57 AM CDT 9:31 PM CDT
Nautical Twilight 4:10 AM CDT 10:17 PM CDT
Astronomical Twilight 3:12 AM CDT 11:15 PM CDT
Moon 2:53 AM CDT (7/4) 5:57 PM CDT (7/4)
Length of Visible Light 16h 33m
Length of Day
15h 22m
Waning Crescent, 11% of the Moon is Illuminated
Jul 4
Waning Crescent
Jul 8
New
Jul 15
First Quarter
Jul 22
Full
Jul 29
Last Quarter

Hourly Weather History & Observations

Time (CDT) Temp. Heat Index Dew Point Humidity Pressure Visibility Wind Dir Wind Speed Gust Speed Precip Events Conditions
12:54 AM 68.0 °F - 48.9 °F 50% 30.01 in 10.0 mi South 9.2 mph - N/A   Mostly Cloudy
1:54 AM 64.0 °F - 50.0 °F 60% 30.00 in 10.0 mi South 8.1 mph - N/A   Clear
2:54 AM 62.1 °F - 51.1 °F 67% 30.00 in 10.0 mi South 6.9 mph - N/A   Clear
3:54 AM 61.0 °F - 53.1 °F 75% 30.00 in 10.0 mi South 9.2 mph - N/A   Clear
4:54 AM 62.1 °F - 55.0 °F 78% 30.00 in 10.0 mi South 10.4 mph - N/A   Clear
5:54 AM 63.0 °F - 55.0 °F 75% 30.01 in 10.0 mi South 9.2 mph - N/A   Partly Cloudy
6:54 AM 64.9 °F - 55.9 °F 73% 30.02 in 10.0 mi South 9.2 mph - N/A   Scattered Clouds
7:54 AM 68.0 °F - 57.9 °F 70% 30.02 in 10.0 mi South 15.0 mph - N/A   Clear
8:54 AM 71.1 °F - 57.9 °F 63% 30.01 in 10.0 mi South 12.7 mph - N/A   Mostly Cloudy
9:54 AM 75.0 °F - 57.9 °F 55% 30.00 in 10.0 mi SSW 11.5 mph - N/A   Clear
10:54 AM 80.1 °F 80.2 °F 55.9 °F 43% 29.99 in 10.0 mi South 12.7 mph - N/A   Clear
11:54 AM 82.0 °F 81.7 °F 57.0 °F 42% 29.99 in 10.0 mi SSW 10.4 mph - N/A   Clear
12:54 PM 82.9 °F 81.9 °F 54.0 °F 37% 29.98 in 10.0 mi SW 12.7 mph 19.6 mph N/A   Mostly Cloudy
1:54 PM 84.0 °F 82.9 °F 55.0 °F 37% 29.97 in 10.0 mi South 13.8 mph - N/A   Clear
2:54 PM 84.9 °F 83.6 °F 55.0 °F 36% 29.96 in 10.0 mi SSW 15.0 mph 21.9 mph N/A   Partly Cloudy
3:54 PM 84.9 °F 83.2 °F 53.1 °F 33% 29.96 in 10.0 mi SSW 12.7 mph - N/A   Mostly Cloudy
4:54 PM 82.9 °F 81.9 °F 54.0 °F 37% 29.95 in 10.0 mi South 17.3 mph 23.0 mph N/A   Partly Cloudy
5:54 PM 82.9 °F 81.9 °F 54.0 °F 37% 29.94 in 10.0 mi South 17.3 mph 23.0 mph N/A   Partly Cloudy
6:54 PM 82.9 °F 82.0 °F 55.0 °F 38% 29.94 in 10.0 mi South 15.0 mph - N/A   Clear
7:54 PM 80.1 °F 80.1 °F 55.0 °F 42% 29.93 in 10.0 mi South 16.1 mph - N/A   Clear
8:54 PM 77.0 °F - 55.9 °F 48% 29.93 in 10.0 mi South 9.2 mph - N/A   Clear
9:54 PM 73.9 °F - 57.0 °F 55% 29.95 in 10.0 mi South 8.1 mph - N/A   Clear
10:54 PM 72.0 °F - 57.0 °F 59% 29.96 in 10.0 mi South 6.9 mph - N/A   Clear
11:54 PM 72.0 °F - 55.9 °F 57% 29.96 in 10.0 mi South 11.5 mph - N/A   Clear